Flight Track Log - Related Links

Times and Time Zones

All times are in EDT time to prevent confusion due to time zone crossing. See the ASQ5025 flight status page for this flight to view local times or setup timezone preferences in your user account.

Time Position Orientation Groundspeed Altitude Reporting Facility
EDT Latitude Longitude Course Direction KTS MPH feet Rate Location/Type
11:23AM 44.3633 -73.1631 197° South 203 234 6,200  Level Boston Center
11:24AM 44.2964 -73.1914 197° South 230 265 8,300 2,318 Climbing Boston Center
11:25AM 44.2067 -73.2278 196° South 273 314 11,300 2,455 Climbing Boston Center
11:26AM 44.1231 -73.2614 196° South 306 352 13,700 2,250 Climbing Boston Center
11:27AM 44.0353 -73.2978 197° South 329 379 15,800 2,200 Climbing Boston Center
11:28AM 43.9411 -73.3367 197° South 345 397 18,100 1,850 Climbing Boston Center
11:29AM 43.8511 -73.3728 196° South 363 418 19,500 1,650 Climbing Boston Center
11:30AM 43.7508 -73.4117 196° South 371 427 21,400 1,250 Climbing Boston Center
11:31AM 43.6464 -73.4500 195° South 386 444 22,000 300 Climbing Boston Center
11:32AM 43.5375 -73.4969 197° South 396 456 22,000  Level Boston Center
11:33AM 43.4289 -73.5350 194° South 402 463 22,000  Level Boston Center
11:34AM 43.3222 -73.5789 197° South 402 463 22,000  Level Boston Center
11:35AM 43.2117 -73.5739 178° South 396 456 22,000 -200 Level Boston Center
11:36AM 43.0889 -73.5686 178° South 394 453 21,600 -700 Descending Boston Center
11:37AM 42.9806 -73.5583 176° South 399 459 20,600 -800 Descending Boston Center
11:38AM 42.8722 -73.5533 178° South 399 459 20,000 -300 Descending Boston Center
11:39AM 42.7722 -73.5517 179° South 385 443 20,000  Level Boston Center
11:40AM 42.6681 -73.5497 179° South 379 436 20,000 -250 Level Boston Center
11:41AM 42.5617 -73.5564 183° South 384 442 19,500 -500 Descending Boston Center
11:42AM 42.4492 -73.5628 182° South 393 452 19,000 -250 Descending Boston Center
11:43AM 42.3364 -73.5664 181° South 405 466 19,000  Level Boston Center
11:44AM 42.2342 -73.5786 185° South 405 466 19,000 -300 Level Boston Center
11:45AM 42.1300 -73.5822 181° South 400 460 18,400 -500 Descending Boston Center
11:46AM 42.0278 -73.5889 183° South 385 443 18,000 -200 Descending Boston Center
11:47AM 41.9256 -73.6036 186° South 380 437 18,000  Level Boston Center
11:48AM 41.8272 -73.6353 193° South 375 432 18,000 -600 Level Boston Center
11:49AM 41.7289 -73.6697 195° South 370 426 16,800 -1,814 Descending Boston Center
11:51AM 41.5500 -73.7333 195° South 327 376 12,800 -2,093 Descending New York TRACON
11:52AM 41.4667 -73.7500 189° South 314 361 10,800 -1,571 Descending New York TRACON
11:53AM 41.3833 -73.7833 197° South 283 326 9,500 -1,350 Descending New York TRACON
11:54AM 41.3167 -73.7667 169° South 278 320 8,100 -1,526 Descending New York TRACON
11:55AM 41.2500 -73.7167 151° Southeast 275 316 6,600 -1,500 Descending New York TRACON
11:56AM 41.1833 -73.6667 151° Southeast 267 307 5,100 -1,300 Descending New York TRACON
11:57AM 41.1333 -73.6167 143° Southeast 262 302 4,000 -579 Descending New York TRACON
11:58AM 41.0667 -73.6333 191° South 275 316 4,000  Level New York TRACON
11:59AM 41.0000 -73.6833 210° Southwest 279 321 4,000  Level New York TRACON
12:00PM 40.9667 -73.7833 246° West 277 319 4,000  Level New York TRACON
12:01PM 40.9167 -73.8500 225° Southwest 270 311 4,000  Level New York TRACON
12:02PM 40.8667 -73.9333 232° Southwest 265 305 4,000  Level New York TRACON
12:03PM 40.8000 -73.9833 210° Southwest 257 296 4,000  Level New York TRACON
12:04PM 40.7500 -74.0167 207° Southwest 225 259 4,000  Level New York TRACON
12:05PM 40.7000 -74.0667 217° Southwest 226 260 4,000  Level New York TRACON
12:06PM 40.6500 -74.1000 207° Southwest 224 258 4,000 -100 Level New York TRACON
12:07PM 40.5833 -74.1333 201° Southwest 233 268 3,800 -476 Descending New York TRACON
12:08PM 40.5833 -74.0667 90° East 203 234 3,000 -400 Descending New York TRACON
12:09PM 40.6167 -74.0000 57° Northeast 199 229 3,000 -200 Level New York TRACON
12:10PM 40.6667 -73.9667 27° Northeast 179 206 2,600 -750 Descending New York TRACON
12:11PM 40.7000 -73.9333 37° Northeast 185 213 1,500 -1,100 Descending New York TRACON

Login

Don't have an account? Register now (free) for customized features, flight alerts, and more!